Location: Fontevrault
(47.1823°N, 0.0493°E)
Time: 09:57:52
(UTC+00:00)

Cosmos 1455 - Pass Details

Date: 16 June 2021
Orbit: 496 x 522 km, 82.5° (Epoch: 01 August)

Event Time Altitude Azimuth Distance (km) Brightness Sun altitude
Rises 21:55:52 0° 7° (N) 2,653 6.7 -14.0°
Reaches altitude 10° 21:58:56 10° 34° (NE) 1,753 5.2 -14.3°
Maximum altitude 22:00:59 14° 66° (ENE) 1,516 4.5 -14.5°
Enters shadow 22:02:48 11° 96° (E) 1,695 4.5 -14.6°
